Location: Caltech
(34.1382°N, 118.1253°W)
Time: 09:08:23
(UTC-08:00)

Iridium 72 - Visible Passes

Search period start: 11 December 2017 00:00
Search period end: 21 December 2017 00:00
Orbit: 776 x 779 km, 86.4° (Epoch: 10 December)

Date Brightness Start Highest point End Pass type
(mag) Time Alt. Az. Time Alt. Az. Time Alt. Az.
11 Dec 7.9 03:31:59 10° SE 03:35:39 20° E 03:39:18 10° NE visible
11 Dec 5.9 05:11:12 10° SSW 05:16:01 38° W 05:20:51 10° NNW visible
11 Dec 8.3 17:26:54 10° NW 17:30:00 16° W 17:33:05 10° WSW visible
12 Dec 5.4 04:37:14 10° S 04:49:53 - N 04:41:56 68° SW visible
13 Dec 7.2 04:03:53 10° SSE 04:06:12 26° SSE 04:06:12 26° SSE visible
14 Dec 8.8 17:29:10 10° WNW 17:29:53 10° WNW 17:30:35 10° W visible
